Simultaneous Nadir Overpasses (SNOs) Predictions

Prediction of SNOs between GOES-16 and METOP-B Satellite Orbit:

Table of predicted SNOs for the next 14.0 days since TLE Epoch: 4/19/2019
Index Date Time (GOES-16) GOES-16 Lat,Lon METOP-B Lat,Lon Distance(km) Time Diff (sec)
1 04/20/2019 02:31:47 0.01, -75.19 0.00, -75.27 9.33 80
2 04/22/2019 14:30:00 -0.01, -75.21 -0.09, -74.83 43.33 80
3 04/24/2019 02:49:02 0.00, -75.20 -0.93, -79.43 481.91 80
4 04/25/2019 02:25:42 0.00, -75.21 0.15, -74.43 87.89 80
5 04/26/2019 14:44:34 0.00, -75.24 0.84, -79.00 428.08 80
6 04/27/2019 14:26:36 0.00, -75.25 -0.31, -74.01 142.19 80
7 04/29/2019 02:45:36 -0.00, -75.25 -0.78, -78.60 381.92 80
8 04/30/2019 02:22:18 -0.00, -75.26 0.37, -73.61 188.65 80
9 05/01/2019 14:41:10 0.00, -75.31 0.62, -78.18 326.16 80
10 05/02/2019 14:23:11 0.00, -75.33 -0.47, -73.18 244.87 80




NCC Satellite Simultaneous Nadir Overpasses (SNOs) Prediction Service
